Weather History for Chamberlain, SD

Change the Weather History Date:

Tuesday, November 20, 2012

  Actual Average Record
Temperature  
Mean Temperature 50 °F -  
Max Temperature 73 °F 39 °F 73 °F (2012)
Min Temperature 26 °F 21 °F 3 °F (2000)
Degree Days  
Heating Degree Days 16    
Moisture  
Dew Point 27 °F    
Average Humidity 53    
Maximum Humidity 88    
Minimum Humidity 17    
Precipitation  
Precipitation 0.00 in - - ()
Sea Level Pressure  
Sea Level Pressure 30.05 in    
Wind  
Wind Speed 7 mph (SSW)    
Max Wind Speed 20 mph    
Max Gust Speed 25 mph    
Averages and records for this station are not official NWS values.
T = Trace of Precipitation, MM = Missing Value Source: NWS Daily Summary

Daily Weather History Graph

Daily Weather History Graph

Search for Another Location

Airport:

Trip Planner

Search our weather history database for the weather conditions in past years. The results will help you decide how hot, cold, wet, or windy it might be!

Date:

Astronomy

Nov. 20, 2012 Rise Set
Actual Time 7:38 AM CST 5:06 PM CST
Civil Twilight 7:07 AM CST 5:38 PM CST
Nautical Twilight 6:32 AM CST 6:13 PM CST
Astronomical Twilight 5:57 AM CST 6:47 PM CST
Moon 1:06 PM CST (11/20) No Moon Set
Length of Visible Light 10h 31m
Length of Day
9h 28m
First Quarter, 51% of the Moon is Illuminated
Nov 20
First Quarter
Nov 28
Full
Dec 6
Last Quarter
Dec 13
New
Dec 19
First Quarter

Hourly Weather History & Observations

Time (CST) Temp. Windchill Dew Point Humidity Pressure Visibility Wind Dir Wind Speed Gust Speed Precip Events Conditions
12:52 AM 34.0 °F 31.0 °F 26.1 °F 73% 30.18 in - SE 3.5 mph - N/A   Unknown
1:52 AM 30.0 °F 26.5 °F 26.1 °F 85% 30.19 in - SE 3.5 mph - N/A   Unknown
2:52 AM 26.1 °F 20.5 °F 23.0 °F 88% 30.19 in - SE 4.6 mph - N/A   Unknown
3:52 AM 28.0 °F 20.8 °F 24.1 °F 85% 30.18 in - South 6.9 mph - N/A   Unknown
4:52 AM 28.9 °F 21.9 °F 25.0 °F 85% 30.16 in - SE 6.9 mph - N/A   Unknown
5:52 AM 28.0 °F 21.7 °F 24.1 °F 85% 30.16 in - SSE 5.8 mph - N/A   Unknown
6:52 AM 28.9 °F 20.4 °F 24.1 °F 82% 30.14 in - SE 9.2 mph - N/A   Unknown
7:52 AM 30.9 °F - 26.1 °F 82% 30.13 in - North - - N/A   Unknown
8:52 AM 37.9 °F - 30.9 °F 76% 30.10 in - North - - N/A   Unknown
9:52 AM 48.9 °F - 32.0 °F 52% 30.09 in - South 9.2 mph - N/A   Unknown
10:52 AM 54.0 °F - 30.9 °F 41% 30.09 in - SSW 12.7 mph - N/A   Unknown
11:52 AM 63.0 °F - 30.9 °F 30% 30.05 in - South 9.2 mph 19.6 mph N/A   Unknown
12:52 PM 70.0 °F - 30.0 °F 23% 29.99 in - South 15.0 mph - N/A   Unknown
1:52 PM 73.0 °F - 27.0 °F 18% 29.96 in - SSW 19.6 mph 25.3 mph N/A   Unknown
2:52 PM 73.9 °F - 26.1 °F 17% 29.94 in - SW 18.4 mph - N/A   Unknown
3:52 PM 70.0 °F - 27.0 °F 20% 29.94 in - SW 12.7 mph - N/A   Unknown
4:52 PM 63.0 °F - 27.0 °F 26% 29.95 in - SW 8.1 mph - N/A   Unknown
5:52 PM 57.0 °F - 28.0 °F 33% 29.96 in - North - - N/A   Unknown
6:52 PM 55.0 °F - 28.0 °F 35% 29.97 in - West 4.6 mph - N/A   Unknown
7:52 PM 55.0 °F - 30.0 °F 38% 29.96 in - West 5.8 mph - N/A   Unknown
8:52 PM 48.0 °F - 28.0 °F 46% 29.97 in - SW 6.9 mph - N/A   Unknown
9:52 PM 46.9 °F - 28.0 °F 48% 29.96 in - SSW 6.9 mph - N/A   Unknown
10:52 PM 48.0 °F - 28.9 °F 48% 29.94 in - WSW 5.8 mph - N/A   Unknown
11:52 PM 46.0 °F 43.9 °F 28.0 °F 50% 29.94 in - WSW 4.6 mph - N/A   Unknown